Location: Arinsal
(42.5723°N, 1.4838°E)
Time: 14:32:25
(UTC+00:00)

Daily predictions for brighter satellites

Satellite Brightness Start Highest point End
(mag) Time Altitude Azimuth Time Altitude Azimuth Time Altitude Azimuth
SL-08 R/B 3.5 19:55:47 10° N 20:00:25 77° WNW 20:05:05 10° SSW
ERS-1 Rocket 3.5 19:57:09 10° SE 20:01:49 42° ENE 20:06:30 10° N
GP-B 4.0 20:09:13 10° N 20:13:29 53° W 20:17:44 10° SSW
ADEOS 4.2 20:09:39 10° S 20:14:45 56° W 20:19:53 10° NNW
Helios 1A 3.6 20:13:52 10° NNE 20:17:28 33° E 20:21:02 10° SSE
Okean 2 Rocket 4.1 20:17:20 10° NNE 20:21:12 30° ENE 20:24:34 12° SE
CZ-4C R/B 2.3 20:23:15 10° S 20:26:54 32° ESE 20:31:16 10° NE
Cosmos 2151 Rocket 4.1 20:24:03 10° N 20:28:24 45° ENE 20:32:08 13° SSE
Cosmos 1656 Rocket 4.4 20:25:42 10° SW 20:31:10 58° WNW 20:36:35 10° NNE
IRS-1A Rocket 4.3 20:26:20 10° SSE 20:31:46 65° ENE 20:37:17 10° N
Okean 1 Rocket 4.1 20:28:37 10° NNE 20:32:28 30° ENE 20:35:19 15° SE
Cosmos 2297 3.7 20:27:32 10° SSW 20:33:10 87° ESE 20:38:52 10° NNE
Cosmos 2242 Rocket 4.2 20:29:11 10° SSW 20:33:29 58° W 20:37:49 10° N
Cosmos 2221 Rocket 4.0 20:35:05 11° SSE 20:39:14 44° E 20:43:33 10° NNE
Cosmos 1503 Rocket 4.0 20:34:30 10° SSW 20:39:41 86° WNW 20:44:51 10° NNE
ASTEX 1 4.1 20:35:18 10° NNE 20:39:45 35° E 20:43:06 16° SSE
Meteor 1-21 Rocket 4.2 20:34:46 10° S 20:40:24 75° E 20:45:59 10° NNE
COSMOS 2406 4.4 20:38:27 10° NW 20:43:43 38° WSW 20:48:57 10° S
Cosmos 44 3.1 20:39:38 10° SSW 20:43:46 51° ESE 20:48:01 10° NE
Tiangong -1.4 20:40:54 10° SW 20:43:56 36° SSE 20:45:51 18° ESE
Meteor PRIRODA 3.3 20:41:52 13° S 20:44:13 61° WSW 20:47:02 10° NNW
CZ-4B R/B 4.3 20:41:30 10° S 20:46:35 43° W 20:51:47 10° NNW
ISS -1.2 20:45:04 10° NW 20:47:31 19° N 20:49:58 10° NE
Cosmos 1354 Rocket 3.9 20:44:38 10° SSW 20:49:52 83° ESE 20:55:06 10° NNE
Cosmos 1674 Rocket 3.5 20:47:08 10° S 20:51:31 87° ESE 20:55:59 10° N
In-Cosmos 22 Rocket 4.4 20:48:15 10° SSW 20:54:03 82° W 20:59:50 10° N
CZ-4 R/B 4.2 20:52:55 10° WSW 20:54:04 11° W 20:55:13 10° WNW
Sich 1 Rocket 3.7 20:50:51 10° N 20:55:22 61° E 20:58:20 21° SSE
Ariane Rocket 3.5 20:54:15 20° SE 20:57:26 44° ENE 21:02:12 10° N
Cosmos 2180 Rocket 4.5 20:55:25 10° N 21:01:38 83° E 21:06:48 16° S
Terra 2.3 20:58:30 11° S 21:02:52 58° W 21:07:32 10° NNW
DELTA 2 R/B (1) 3.7 20:57:51 10° WSW 21:03:13 53° SSE 21:08:23 11° E
SAR-Lupe-2 3.9 21:04:34 29° SE 21:06:04 49° ENE 21:09:34 10° N
Cosmos 2369 Rocket 3.0 21:00:56 10° SW 21:06:31 54° WNW 21:12:06 10° NNE
Cosmos 1025 Rocket 2.9 21:04:57 14° S 21:08:35 83° E 21:12:58 10° N
Cosmos 2279 Rocket 4.4 21:04:14 10° NNW 21:10:22 61° W 21:16:30 10° S
Okean-O 3.5 21:06:40 12° S 21:10:32 45° W 21:14:46 10° NNW
Meteor 2-12 Rocket 4.5 21:06:03 10° S 21:12:13 87° W 21:18:23 10° N
USA 245 3.4 21:09:58 21° S 21:12:41 73° WSW 21:16:10 10° NNW
Cosmos 1869 3.9 21:09:31 10° NNW 21:12:56 45° W 21:15:22 17° SSW
Okean O Rocket 3.2 21:12:04 10° SSW 21:15:54 30° W 21:19:47 10° NW
Cosmos 2297 Rocket 4.3 21:17:00 10° N 21:20:17 15° NE 21:23:31 10° E
NOSS 3-4 (A) 4.3 21:24:58 10° NW 21:31:53 58° WSW 21:37:06 23° S
NOSS 3-4 (C) 4.3 21:25:01 10° NW 21:31:56 59° WSW 21:37:05 23° S
Spot 2 Rocket 4.2 21:28:31 18° S 21:32:09 49° W 21:37:05 10° NNW
Cosmos 1867 3.5 21:29:19 10° SSW 21:34:41 66° ESE 21:40:07 10° NE
Cosmos 1812 2.1 21:31:39 10° N 21:34:50 79° W 21:35:17 61° SSW
SPOT 3 Rocket 3.6 21:32:07 27° S 21:35:02 76° WSW 21:40:16 10° NNW
PSLV R/B 3.1 21:34:54 63° ESE 21:35:09 67° ENE 21:38:15 10° N
Cosmos 1900 4.4 21:34:32 10° SW 21:39:31 80° WNW 21:44:39 10° NNE
Cosmos 1898 Rocket 3.5 21:38:08 31° S 21:40:30 61° ESE 21:45:41 10° NNE
DNEPR-1 R/B 4.1 21:38:14 10° NNW 21:42:18 45° NE 21:43:42 33° E
Cosmos 1538 Rocket 4.0 21:44:20 10° NNW 21:49:44 90° E 21:51:46 40° SSE
Cosmos 1818 4.3 21:44:39 10° NW 21:49:48 44° WSW 21:52:04 29° SSW
Cosmos 2227 Rocket 4.5 21:50:20 10° NNE 21:53:01 13° NE 21:55:42 10° ENE
USA 81 4.0 21:53:41 41° SSE 21:55:26 67° E 22:00:40 10° N
Cosmos 2098 Rocket 2.9 21:59:03 10° N 22:02:14 52° ENE 22:02:14 52° ENE
BlueWalker 3 3.7 22:00:19 10° NW 22:03:27 26° NNE 22:05:03 19° ENE
Cosmos 1515 4.5 22:01:40 10° NNW 22:03:25 31° NW 22:03:25 31° NW
Cosmos 2228 3.0 22:03:41 10° N 22:07:53 62° E 22:08:13 59° ESE
Cosmos 1975 Rocket 3.1 22:08:20 46° SSW 22:09:30 70° W 22:13:49 10° N
Cosmos 381 Rocket 4.4 22:08:29 10° NNW 22:14:50 84° ENE 22:16:57 44° SSE
Cosmos 372 Rocket 4.4 22:11:45 22° SW 22:14:59 59° WNW 22:20:01 10° NNE
CZ-4C R/B 3.6 22:11:08 10° WSW 22:15:04 31° NW 22:19:55 10° NNE
Cosmos 1455 Rocket 4.1 22:16:45 10° NNW 22:20:43 37° W 22:21:51 31° SW
Tiangong 0.4 22:17:36 10° W 22:18:21 16° W 22:18:21 16° W
CZ-4C R/B 4.3 22:17:54 10° NNE 22:20:28 34° ENE 22:20:28 34° ENE
ISS -2.8 22:21:36 10° NW 22:24:31 45° N 22:24:31 45° N
Cosmos 1656 3.5 22:26:02 49° S 22:27:37 80° ESE 22:33:10 10° NNE
Meteor 2-20 4.3 22:23:05 10° N 22:29:15 87° E 22:31:02 49° S
Cosmos 2112 Rocket 4.2 22:29:42 10° NNW 22:34:57 60° ENE 22:35:51 52° ESE
Cosmos 1937 Rocket 3.9 22:34:44 32° SW 22:36:54 58° WNW 22:41:58 10° NNE
Cosmos 2263 Rocket 4.5 22:35:36 10° N 22:38:49 15° NE 22:42:01 10° E
DELTA 2 DEB (DPAF) 4.1 22:36:26 10° N 22:40:18 62° WNW 22:40:20 62° WNW
RESURS DK-1 2.5 22:38:55 10° NNW 22:42:29 65° NNE 22:42:29 65° NNE
Cosmos 2266 Rocket 4.2 22:42:52 49° SE 22:44:12 58° E 22:50:29 10° NNE
Cosmos 1400 Rocket 3.1 22:40:24 10° N 22:43:33 59° N 22:43:33 59° N
Cosmos 1680 Rocket 3.4 22:39:48 10° NNW 22:45:06 88° ENE 22:45:47 69° SSE
Cosmos 1782 3.9 22:41:44 10° N 22:44:20 32° NE 22:44:20 32° NE
SL-08 ROCKET BODY 4.2 22:47:35 57° S 22:48:56 86° E 22:54:51 10° N
DELTA 2 R/B (1) 3.5 22:43:52 10° W 22:49:05 63° SSW 22:49:05 63° SSW
ARIANE 5 R/B 2.6 22:51:38 74° ENE 22:51:38 74° ENE 22:56:00 10° N
Cosmos 2058 3.4 22:53:29 50° NE 22:53:29 50° NE 22:56:33 10° NNE
CZ-2C R/B 3.6 22:49:12 10° NNE 22:53:57 88° WNW 22:54:09 82° SSW
Cosmos 923 Rocket 4.3 22:51:43 10° NNW 22:56:46 53° WSW 22:57:15 51° SW
Lacrosse 5 rocket 3.7 22:54:06 10° NNW 22:56:57 19° NNE 22:59:04 13° ENE
Cosmos 1553 Rocket 4.2 22:52:49 10° NNW 22:59:02 64° W 23:00:44 47° SSW
Cosmos 2315 Rocket 4.4 22:56:14 10° N 23:02:27 51° ENE 23:03:49 44° ESE
Cosmos 1536 Rocket 3.7 23:03:26 71° WNW 23:03:26 71° WNW 23:07:40 10° N
Cosmos 2297 Rocket 2.0 22:59:30 10° NNW 23:05:11 84° ENE 23:05:55 69° SE
Spot 4 3.7 23:06:04 76° E 23:06:10 77° ENE 23:10:59 10° N
Cosmos 1980 Rocket 3.4 23:12:31 28° E 23:12:31 28° E 23:16:37 10° NE
Cosmos 494 Rocket 3.8 23:07:53 10° NNW 23:13:07 90° W 23:13:19 84° SSE
Cosmos 1606 Rocket 3.8 23:09:40 10° N 23:13:33 63° NE 23:13:33 63° NE
Cosmos 1125 Rocket 4.4 23:15:22 35° E 23:15:22 35° E 23:19:33 10° NE
Cosmos 1697 Rocket 2.6 23:15:36 70° SE 23:15:51 71° ESE 23:21:31 10° NNE
Cosmos 1417 Rocket 4.4 23:12:21 10° N 23:18:30 78° W 23:19:33 62° SSW
S3M 3.9 23:14:17 10° N 23:20:37 88° W 23:21:42 64° S
Cosmos 1048 Rocket 4.1 23:20:24 10° NNW 23:25:46 68° ENE 23:26:09 65° E
GEOS 3 Rocket 3.6 23:20:58 10° NE 23:26:03 66° ESE 23:26:03 66° ESE
Cosmos 1356 Rocket 4.4 23:25:00 10° N 23:28:08 41° NE 23:28:08 41° NE
Cosmos 1932 4.3 23:29:35 67° S 23:30:19 75° ESE 23:36:41 10° NE
Cosmos 1726 Rocket 3.8 23:32:01 10° N 23:36:15 74° N 23:36:15 74° N
Cosmos 2227 Rocket 2.2 23:32:26 10° NNW 23:38:07 71° ENE 23:38:48 64° ESE
Meteor 2-3 Rocket 3.7 23:38:20 65° ESE 23:38:43 67° E 23:44:27 10° NNE
Cosmos 1655 Rocket 3.9 23:38:29 65° S 23:39:32 87° E 23:45:57 10° N
BlueWalker 3 4.1 23:37:45 10° WNW 23:38:56 19° WNW 23:38:56 19° WNW
Cosmos 2058 Rocket 3.8 23:37:10 10° N 23:41:04 47° ENE 23:41:04 47° ENE
ALOS 2 3.2 23:42:55 51° WNW 23:42:55 51° WNW 23:46:35 10° NNW
Gbstr 26 Del rocket 3.8 23:39:24 10° WNW 23:45:04 68° SW 23:45:17 67° SSW
PSLV R/B 3.9 23:42:05 10° N 23:46:32 70° NW 23:46:32 70° NW
Cosmos 1892 Rocket 4.0 23:55:06 55° NW 23:55:06 55° NW 23:58:43 10° N
EO 1 Delta rocket 3.8 23:54:40 82° NNW 23:54:40 82° NNW 23:59:31 10° N
